This demonstration page uses our WeatherBlox Daily Observations layout. Learn more.

Left ArrowRight Arrow

Hourly Observations for December 31, 2020

Temp ( °F °C ) Dew Point ( °F °C ) Humidity (%) Winds ( mph kmh ) Pressure ( in mb ) Visibility ( mi km ) Precip ( " mm )
12:51 am 00:51 Clear 33 0.6 15 -9.4 47 47 ESE 3 6 30.08 1019 10 16.0934 0 0
1:51 am 01:51 Clear 29 -1.7 15 -9.4 56 56 Calm 30.08 1019 10 16.0934 0 0
2:51 am 02:51 Clear 32 0 14 -10 47 47 E 5 7 30.08 1019 10 16.0934 0 0
3:51 am 03:51 Clear 31 -0.6 13 -10.6 47 47 S 3 6 30.07 1018 10 16.0934 0 0
4:51 am 04:51 Clear 24 -4.4 12 -11.1 60 60 Calm 30.06 1018 10 16.0934 0 0
5:51 am 05:51 Clear 23 -5 12 -11.1 63 63 E 5 7 30.05 1018 10 16.0934 0 0
6:51 am 06:51 Clear 28 -2.2 15 -9.4 58 58 ESE 6 9 30.03 1017 10 16.0934 0 0
7:51 am 07:51 Sunny 31 -0.6 14 -10 49 49 SSE 13 20 30.04 1017 10 16.0934 0 0
8:51 am 08:51 Sunny 37 2.8 17 -8.3 44 44 SSE 9 15 30.03 1017 10 16.0934 0 0
9:51 am 09:51 Sunny 43 6.1 18 -7.8 37 37 ESE 9 15 30.03 1017 10 16.0934 0 0
10:51 am 10:51 Sunny 47 8.3 17 -8.3 30 30 ESE 6 9 30.02 1017 10 16.0934 0 0
11:51 am 11:51 Sunny 49 9.4 17 -8.3 28 28 ESE 6 9 29.97 1015 10 16.0934 0 0
12:51 pm 12:51 Sunny 50 10 16 -8.9 26 26 SE 6 9 29.91 1013 10 16.0934 0 0
1:51 pm 13:51 Sunny 50 10 16 -8.9 26 26 VRB 3 6 29.87 1012 10 16.0934 0 0
2:51 pm 14:51 Sunny 51 10.6 15 -9.4 24 24 Calm 29.84 1011 10 16.0934 0 0
3:51 pm 15:51 Sunny 51 10.6 15 -9.4 24 24 SW 3 6 29.84 1011 10 16.0934 0 0
4:51 pm 16:51 Sunny 50 10 15 -9.4 25 25 WSW 3 6 29.85 1011 10 16.0934 0 0
5:51 pm 17:51 Clear 46 7.8 16 -8.9 30 30 WNW 6 9 29.86 1011 10 16.0934 0 0
6:51 pm 18:51 Cloudy 47 8.3 17 -8.3 30 30 NW 9 15 29.85 1011 10 16.0934 0 0
7:51 pm 19:51 Mostly Cloudy 46 7.8 17 -8.3 31 31 NW 8 13 29.85 1011 10 16.0934 0 0
8:51 pm 20:51 Clear 43 6.1 17 -8.3 35 35 W 6 9 29.84 1011 10 16.0934 0 0
9:51 pm 21:51 Partly Cloudy 40 4.4 17 -8.3 40 40 Calm 29.84 1011 10 16.0934 0 0
10:51 pm 22:51 Clear 37 2.8 17 -8.3 44 44 E 5 7 29.84 1011 10 16.0934 0 0
11:51 pm 23:51 Clear 37 2.8 17 -8.3 44 44 NE 6 9 29.85 1011 10 16.0934 0 0

Powered by AerisWeather